Flag for United Kingdom Weather past 2 weeks in Cardiff, Wales, United Kingdom

Now
39 °F

Chilly.


Feels Like: 30 °F
Forecast: 39 / 60 °F
Wind: 16 mph from Northeast

Location: Wales Airport

Current Time: Apr 19, 2015 at 6:01:26 AM

Latest Report: Apr 19, 2015 at 5:20 AM


Visibility: N/A

Pressure: 30.27 "Hg

Humidity: 87%

Dew point: 36 °F

Location of CardiffLocation

Historic Weather in Cardiff — Graph

°F

Cardiff temperature yesterday

Maximum temperature yesterday: 59 °F (at 2:50 PM)
Minimum temperature yesterday: 41 °F (at 5:50 AM)
Average temperature yesterday: 50 °F

Past Weeks' High & Low Weather Summary

 TemperatureHumidityPressure
High64 °F (Apr 10, 3:20 PM)100% (Apr 6, 2:50 AM)30.66 "Hg (Apr 6, 2:50 AM)
Low39 °F (Apr 19, 5:20 AM)42% (Apr 9, 4:50 PM)29.86 "Hg (Apr 11, 1:50 AM)
Average51 °F78%30.26 "Hg
* Reported Apr 4 5:20 AM — Apr 19 5:20 AM, Cardiff, Weather by CustomWeather, © 2015

Note: Actual official high and low records may vary slightly from our data, if they occured in-between our weather recording intervals... More about our weather records

Advertising

Cardiff weather history for previous 24 hours

 ConditionsComfort  
Time TempWeatherWind HumidityBarometerVisibility
5:20 AM
Sun, Apr 19
39 °FChilly.16 mph87%30.27 "HgN/A
4:20 AM41 °FQuite cool.16 mph87%30.30 "HgN/A
3:50 AM41 °FPassing clouds.15 mph87%30.30 "HgN/A
3:20 AM41 °FQuite cool.17 mph87%30.30 "HgN/A
2:50 AM41 °FQuite cool.13 mph87%30.30 "HgN/A
2:20 AM43 °FQuite cool.12 mph81%30.30 "HgN/A
1:50 AM43 °FQuite cool.13 mph81%30.33 "HgN/A
1:20 AM45 °FQuite cool.16 mph76%30.33 "HgN/A
12:50 AM45 °FQuite cool.14 mph76%30.33 "HgN/A
12:20 AM46 °FCool.17 mph76%30.33 "HgN/A
11:50 PM
Sat, Apr 18
48 °FCool.17 mph71%30.30 "HgN/A
11:20 PM48 °FCool.22 mph71%30.30 "HgN/A
10:50 PM50 °FCool.21 mph67%30.30 "HgN/A
10:20 PM52 °FCool.21 mph67%30.27 "HgN/A
9:50 PM52 °FCool.18 mph67%30.27 "HgN/A
9:20 PM54 °FCool.18 mph58%30.27 "HgN/A
8:50 PM54 °FCool.15 mph58%30.27 "HgN/A
8:20 PM55 °FRefreshingly cool.17 mph55%30.27 "HgN/A
7:50 PM55 °FRefreshingly cool.17 mph51%30.27 "HgN/A
7:20 PM57 °FRefreshingly cool.17 mph51%30.24 "HgN/A
6:50 PM57 °FRefreshingly cool.20 mph51%30.24 "HgN/A
6:20 PM59 °FRefreshingly cool.21 mph48%30.24 "HgN/A
5:50 PM59 °FRefreshingly cool.22 mph48%30.24 "HgN/A
5:20 PM59 °FRefreshingly cool.23 mph51%30.24 "HgN/A
4:50 PM59 °FRefreshingly cool.21 mph51%30.24 "HgN/A
4:20 PM59 °FRefreshingly cool.23 mph51%30.27 "HgN/A
3:50 PM59 °FRefreshingly cool.23 mph48%30.27 "HgN/A
3:20 PM59 °FRefreshingly cool.22 mph45%30.27 "HgN/A
2:50 PM59 °FRefreshingly cool.18 mph45%30.27 "HgN/A
2:20 PM57 °FRefreshingly cool.21 mph48%30.27 "HgN/A
1:50 PM57 °FRefreshingly cool.22 mph44%30.30 "HgN/A
1:20 PM57 °FRefreshingly cool.22 mph48%30.30 "HgN/A
12:50 PM55 °FRefreshingly cool.23 mph47%30.30 "HgN/A
12:20 PM54 °FCool.22 mph54%30.30 "HgN/A
11:50 AM52 °FCool.20 mph54%30.33 "HgN/A
11:20 AM52 °FCool.22 mph58%30.33 "HgN/A
10:50 AM48 °FPassing clouds.21 mph66%30.33 "HgN/A
10:20 AM48 °FPassing clouds.17 mph66%30.33 "HgN/A
9:50 AM46 °FPartly sunny.20 mph76%30.33 "HgN/A
9:20 AM45 °FPartly sunny.20 mph76%30.33 "HgN/A
8:50 AM43 °FPartly sunny.21 mph81%30.33 "HgN/A
8:20 AM43 °FPartly sunny.21 mph76%30.33 "HgN/A
7:50 AM43 °FOvercast.20 mph76%30.33 "HgN/A
7:20 AM41 °FPartly sunny.17 mph81%30.33 "HgN/A
6:50 AM41 °FOvercast.17 mph81%30.30 "HgN/A
6:20 AM41 °FOvercast.16 mph81%30.30 "HgN/A
Weather by CustomWeather, © 2015

See weather overviewHow to use our weather pages